Location: Jackson
(42.2460°N, 84.4010°W)
Time: 02:17:59
(UTC-05:00)

Explorer 11/Cluster Stage 4 - All Passes

Search period start: 15 February 2026 00:00
Search period end: 25 February 2026 00:00
Orbit: 463 x 1177 km, 28.8° (Epoch: 13 February)

Date Brightness Start Highest point End Pass type
(mag) Time Alt. Az. Time Alt. Az. Time Alt. Az.
18 Feb - 14:58:08 10° S 14:58:49 10° S 14:59:29 10° S daylight
19 Feb - 14:33:34 10° SSW 14:34:41 11° S 14:35:47 10° SSE daylight
20 Feb - 14:08:59 10° SSW 14:10:32 12° S 14:12:02 10° SSE daylight
21 Feb - 11:58:37 10° S 11:59:45 11° S 12:00:49 10° SSE daylight
21 Feb - 13:44:24 10° SSW 13:46:23 13° S 13:48:15 10° SSE daylight
22 Feb - 11:33:30 10° SSW 11:35:31 12° S 11:37:23 10° SSE daylight
22 Feb - 13:19:46 10° SW 13:22:12 14° S 13:24:25 10° SSE daylight
23 Feb - 11:08:33 10° SSW 11:11:14 14° S 11:13:43 10° SE daylight
23 Feb - 12:55:07 10° SW 12:57:59 15° S 13:00:35 10° SSE daylight
24 Feb - 10:43:39 10° SSW 10:46:56 15° S 10:49:55 10° SE daylight
24 Feb - 12:30:25 10° SW 12:33:44 17° S 12:36:42 10° SE daylight
